Location: A�t �Alizem
(31.2076°N, 8.7872°W)
Time: 05:58:51
(UTC+00:00)

Feng Yun 1-1 Rocket - Pass Details

Date: 27 November 2020
Orbit: 830 x 933 km, 99.2° (Epoch: 25 January)

Event Time Altitude Azimuth Distance (km) Brightness Sun altitude
Rises 18:38:01 0° 160° (SSE) 3,554 7.4 -13.9°
Reaches altitude 10° 18:40:27 10° 158° (SSE) 2,605 6.7 -14.4°
Maximum altitude 18:46:15 73° 75° (ENE) 946 4.2 -15.6°
Drops below altitude 10° 18:51:56 10° 351° (N) 2,557 6.6 -16.8°
Sets 18:54:18 0° 350° (N) 3,484 7.4 -17.3°
